Weather History for Maple Lake, MN

Change the Weather History Date:

Thursday, June 27, 2013

  Actual Average (KSTC) Record (KSTC)
Temperature  
Mean Temperature 74 °F 69 °F  
Max Temperature 83 °F 81 °F 99 °F (1934)
Min Temperature 66 °F 57 °F 37 °F (1992)
Degree Days  
Heating Degree Days 0 1  
Month to date heating degree days 75  
Since 1 June heating degree days 75  
Since 1 July heating degree days 8529  
Cooling Degree Days 10 5  
Month to date cooling degree days 80  
Year to date cooling degree days 105  
Since 1 June cooling degree days 80  
Growing Degree Days 24 (Base 50)    
Moisture  
Dew Point 61 °F    
Average Humidity 62    
Maximum Humidity 97    
Minimum Humidity 38    
Precipitation  
Precipitation 0.00 in 0.14 in 3.35 in (1920)
Month to date precipitation 3.76  
Year to date precipitation 12.07  
Snow  
Snow 0.00 in 0.00 in 0.00 in ()
Month to date snowfall 0.0  
Since 1 June snowfall 0.0  
Since 1 July snowfall 45.7  
Snow Depth -    
Sea Level Pressure  
Sea Level Pressure 29.84 in    
Wind  
Wind Speed 6 mph (WNW)    
Max Wind Speed 18 mph    
Max Gust Speed 28 mph    
Visibility 10 miles    
Events      
T = Trace of Precipitation, MM = Missing Value Source: NWS Daily Summary

Daily Weather History Graph

Daily Weather History Graph

Search for Another Location

Airport:

Trip Planner

Search our weather history database for the weather conditions in past years. The results will help you decide how hot, cold, wet, or windy it might be!

Date:

Astronomy

Jun. 27, 2013 Rise Set
Actual Time 5:30 AM CDT 9:07 PM CDT
Civil Twilight 4:52 AM CDT 9:45 PM CDT
Nautical Twilight 4:02 AM CDT 10:35 PM CDT
Astronomical Twilight 2:55 AM CDT 11:41 PM CDT
Moon 11:48 PM CDT (6/27) 10:47 AM CDT (6/27)
Length of Visible Light 16h 52m
Length of Day
15h 37m
Waning Gibbous, 76% of the Moon is Illuminated
Jun 27
Waning Gibbous
Jun 29
Last Quarter
Jul 8
New
Jul 15
First Quarter
Jul 22
Full

Hourly Weather History & Observations

Time (CDT) Temp. Heat Index Dew Point Humidity Pressure Visibility Wind Dir Wind Speed Gust Speed Precip Events Conditions
12:16 AM 70.2 °F - 66.4 °F 88% 29.83 in 10.0 mi Calm Calm - N/A   Clear
12:37 AM 68.9 °F - 66.2 °F 91% 29.83 in 10.0 mi Calm Calm - N/A   Clear
12:56 AM 69.8 °F - 66.2 °F 88% 29.83 in 10.0 mi Calm Calm - N/A   Clear
1:17 AM 69.1 °F - 66.6 °F 92% 29.84 in 10.0 mi Calm Calm - N/A   Clear
1:36 AM 68.7 °F - 66.2 °F 92% 29.83 in 10.0 mi Calm Calm - N/A   Clear
1:56 AM 68.0 °F - 66.2 °F 94% 29.83 in 10.0 mi Calm Calm - N/A   Clear
2:16 AM 66.6 °F - 65.7 °F 97% 29.82 in 10.0 mi Calm Calm - N/A   Clear
2:37 AM 66.6 °F - 65.7 °F 97% 29.82 in 10.0 mi Calm Calm - N/A   Clear
2:56 AM 70.0 °F - 66.4 °F 88% 29.83 in 10.0 mi WSW 4.6 mph - N/A   Clear
3:17 AM 71.4 °F - 66.6 °F 85% 29.83 in 10.0 mi WSW 4.6 mph - N/A   Clear
3:36 AM 71.1 °F - 66.7 °F 86% 29.83 in 10.0 mi WSW 4.6 mph - N/A   Clear
3:56 AM 70.9 °F - 66.7 °F 87% 29.83 in 10.0 mi WSW 5.8 mph - N/A   Clear
4:17 AM 71.1 °F - 67.1 °F 87% 29.83 in 10.0 mi WSW 6.9 mph - N/A   Scattered Clouds
4:37 AM 71.4 °F - 67.3 °F 87% 29.83 in 10.0 mi WSW 5.8 mph - N/A   Clear
4:56 AM 71.6 °F - 66.4 °F 84% 29.83 in 10.0 mi WSW 5.8 mph - N/A   Scattered Clouds
5:16 AM 71.8 °F - 66.0 °F 82% 29.83 in 10.0 mi WSW 5.8 mph - N/A   Mostly Cloudy
5:37 AM 71.4 °F - 65.7 °F 82% 29.83 in 10.0 mi West 6.9 mph - N/A   Scattered Clouds
5:56 AM 70.7 °F - 65.7 °F 84% 29.83 in 10.0 mi West 4.6 mph - N/A   Clear
6:16 AM 70.2 °F - 65.5 °F 85% 29.83 in 10.0 mi West 6.9 mph - N/A   Scattered Clouds
6:37 AM 70.3 °F - 65.5 °F 85% 29.83 in 10.0 mi West 4.6 mph - N/A   Scattered Clouds
6:56 AM 71.6 °F - 66.0 °F 82% 29.84 in 10.0 mi West 4.6 mph - N/A   Clear
7:16 AM 72.5 °F - 66.2 °F 81% 29.84 in 10.0 mi West 5.8 mph - N/A   Clear
7:36 AM 72.3 °F - 66.2 °F 81% 29.84 in 10.0 mi WNW 8.1 mph - N/A   Clear
7:56 AM 73.8 °F - 66.6 °F 78% 29.84 in 10.0 mi West 9.2 mph - N/A   Clear
8:17 AM 74.3 °F - 66.6 °F 77% 29.84 in 10.0 mi WNW 8.1 mph - N/A   Clear
8:37 AM 74.3 °F - 66.0 °F 75% 29.85 in 10.0 mi WNW 10.4 mph - N/A   Clear
8:56 AM 75.2 °F - 66.2 °F 73% 29.85 in 10.0 mi WNW 6.9 mph - N/A   Clear
9:17 AM 76.1 °F - 66.2 °F 71% 29.85 in 10.0 mi WNW 6.9 mph - N/A   Clear
9:36 AM 77.9 °F - 66.6 °F 68% 29.84 in 10.0 mi WNW 6.9 mph - N/A   Clear
9:57 AM 78.4 °F - 65.7 °F 65% 29.84 in 10.0 mi WNW 10.4 mph - N/A   Clear
10:16 AM 79.7 °F - 64.6 °F 60% 29.84 in 10.0 mi WNW 15.0 mph - N/A   Clear
10:37 AM 79.3 °F - 63.0 °F 57% 29.84 in 10.0 mi WNW 12.7 mph - N/A   Clear
10:57 AM 79.9 °F - 63.5 °F 57% 29.84 in 10.0 mi WNW 15.0 mph 20.7 mph N/A   Clear
11:16 AM 80.1 °F 81.4 °F 62.6 °F 55% 29.84 in 10.0 mi WNW 11.5 mph 17.3 mph N/A   Clear
11:36 AM 81.0 °F 81.7 °F 60.4 °F 50% 29.85 in 10.0 mi WNW 16.1 mph 24.2 mph N/A   Clear
11:57 AM 81.5 °F 81.5 °F 57.7 °F 44% 29.85 in 10.0 mi WNW 18.4 mph 24.2 mph N/A   Clear
12:16 PM 81.9 °F 81.9 °F 58.5 °F 45% 29.85 in 10.0 mi WNW 12.7 mph 24.2 mph N/A   Clear
12:36 PM 82.0 °F 82.0 °F 58.1 °F 44% 29.84 in 10.0 mi WNW 13.8 mph 26.5 mph N/A   Clear
12:57 PM 82.4 °F 81.8 °F 56.1 °F 40% 29.85 in 10.0 mi West 16.1 mph 24.2 mph N/A   Clear
1:16 PM 82.6 °F 81.8 °F 55.0 °F 39% 29.85 in 10.0 mi WNW 17.3 mph 25.3 mph N/A   Clear
1:37 PM 83.3 °F 82.5 °F 55.8 °F 39% 29.85 in 10.0 mi WNW 17.3 mph 27.6 mph N/A   Clear
1:56 PM 83.3 °F 82.5 °F 56.1 °F 39% 29.85 in 10.0 mi WNW 18.4 mph 26.5 mph N/A   Clear
2:17 PM 83.5 °F 82.5 °F 55.6 °F 38% 29.85 in 10.0 mi WNW 16.1 mph 25.3 mph N/A   Clear
2:37 PM 83.3 °F 82.5 °F 55.9 °F 39% 29.86 in 10.0 mi WNW 18.4 mph 26.5 mph N/A   Clear
2:56 PM 83.5 °F 82.5 °F 55.4 °F 38% 29.85 in 10.0 mi WNW 15.0 mph 24.2 mph N/A   Clear
3:17 PM 83.7 °F 82.7 °F 55.8 °F 38% 29.85 in 10.0 mi WNW 15.0 mph 23.0 mph N/A   Clear
3:36 PM 83.8 °F 82.8 °F 55.9 °F 38% 29.85 in 10.0 mi NW 16.1 mph 20.7 mph N/A   Clear
3:56 PM 83.7 °F 82.7 °F 55.8 °F 38% 29.85 in 10.0 mi WNW 12.7 mph 24.2 mph N/A   Clear
4:16 PM 83.7 °F 83.0 °F 56.8 °F 40% 29.85 in 10.0 mi WNW 13.8 mph 25.3 mph N/A   Clear
4:36 PM 83.5 °F 82.9 °F 57.2 °F 41% 29.85 in 10.0 mi WNW 16.1 mph 25.3 mph N/A   Clear
4:57 PM 83.3 °F 82.6 °F 56.3 °F 40% 29.85 in 10.0 mi NW 13.8 mph 25.3 mph N/A   Clear
5:16 PM 81.5 °F 81.5 °F 57.6 °F 44% 29.85 in 10.0 mi WNW 16.1 mph 20.7 mph N/A   Clear
5:36 PM 83.1 °F 82.9 °F 58.3 °F 43% 29.84 in 10.0 mi WNW 13.8 mph 17.3 mph N/A   Clear
5:56 PM 82.9 °F 82.7 °F 58.5 °F 43% 29.84 in 10.0 mi NW 11.5 mph 17.3 mph N/A   Clear
6:16 PM 82.6 °F 82.3 °F 57.7 °F 43% 29.84 in 10.0 mi WNW 10.4 mph 18.4 mph N/A   Clear
6:37 PM 81.0 °F 81.0 °F 57.4 °F 44% 29.84 in 10.0 mi WNW 10.4 mph 20.7 mph N/A   Clear
6:56 PM 82.2 °F 82.1 °F 58.3 °F 44% 29.83 in 10.0 mi WNW 8.1 mph - N/A   Clear
7:17 PM 81.9 °F 82.2 °F 59.9 °F 47% 29.83 in 10.0 mi West 9.2 mph - N/A   Clear
7:37 PM 81.5 °F 82.1 °F 60.4 °F 49% 29.83 in 10.0 mi West 10.4 mph - N/A   Clear
7:56 PM 81.1 °F 81.8 °F 60.4 °F 49% 29.82 in 10.0 mi West 6.9 mph - N/A   Clear
8:16 PM 80.6 °F 81.1 °F 59.0 °F 48% 29.82 in 10.0 mi West 11.5 mph - N/A   Clear
8:36 PM 79.7 °F - 58.1 °F 47% 29.82 in 10.0 mi WNW 8.1 mph - N/A   Clear
8:57 PM 78.8 °F - 57.9 °F 49% 29.82 in 10.0 mi West 8.1 mph - N/A   Clear
9:16 PM 77.4 °F - 57.7 °F 51% 29.82 in 10.0 mi West 6.9 mph - N/A   Clear
9:36 PM 76.5 °F - 57.4 °F 52% 29.82 in 10.0 mi WNW 6.9 mph - N/A   Clear
9:57 PM 75.7 °F - 55.9 °F 50% 29.82 in 10.0 mi WNW 5.8 mph - N/A   Clear
10:16 PM 74.7 °F - 55.9 °F 52% 29.82 in 10.0 mi West 5.8 mph - N/A   Clear
10:37 PM 73.6 °F - 56.3 °F 55% 29.82 in 10.0 mi WNW 4.6 mph - N/A   Clear
10:56 PM 72.7 °F - 56.3 °F 56% 29.82 in 10.0 mi WNW 5.8 mph - N/A   Clear
11:17 PM 72.5 °F - 56.8 °F 58% 29.82 in 10.0 mi WNW 6.9 mph - N/A   Clear
11:36 PM 72.7 °F - 57.4 °F 59% 29.83 in 10.0 mi WNW 6.9 mph - N/A   Clear
11:57 PM 73.4 °F - 56.5 °F 55% 29.83 in 10.0 mi NW 6.9 mph - N/A   Clear